FW3031 Weather Reports


time (UTC)temp
C
wind
direction
speed
KPH
gust
KPH
rain 1hr
cm
rain 24hr
cm
rain mn
cm
humidity
%
barometer
mb
20260831034006 26 190 0.0 0.0 0.00 0.00 0.00 61 1015.3
20260831033505 26 190 0.0 0.0 0.00 0.00 0.00 61 1015.3
20260831033112 27 0 0.0 0.0 0.00 0.00 0.00 60 1013.4
20260831033008 27 190 0.0 0.0 0.00 0.00 0.00 60 1015.2
20260831032506 27 190 0.0 0.0 0.00 0.00 0.00 60 1015.2
20260831032007 27 190 0.0 0.0 0.00 0.00 0.00 59 1015.1
20260831031621 27 0 0.0 0.0 0.00 0.00 0.00 59 1013.2
20260831031506 27 190 0.0 0.0 0.00 0.00 0.00 59 1014.9
20260831031004 27 190 0.0 0.0 0.00 0.00 0.00 59 1014.9
20260831030504 27 190 0.0 0.0 0.00 0.00 0.00 58 1014.8
20260831030103 27 0 0.0 4.8 0.00 0.00 0.00 57 1012.9
20260831030004 27 190 0.0 4.8 0.00 0.00 0.00 58 1014.7
20260831025504 27 190 0.0 4.8 0.00 0.00 0.00 58 1014.6
20260831025004 27 190 0.0 3.2 0.00 0.00 0.00 58 1014.5
20260831024611 27 190 0.0 4.8 0.00 0.00 0.00 57 1012.6
20260831024503 27 190 0.0 4.8 0.00 0.00 0.00 58 1014.4
20260831024004 27 190 0.0 4.8 0.00 0.00 0.00 57 1014.2
20260831023502 27 190 0.0 8.0 0.00 0.00 0.00 57 1014.2
20260831023105 27 0 3.2 8.0 0.00 0.00 0.00 56 1012.4
20260831023002 27 190 4.8 8.0 0.00 0.00 0.00 57 1014.1
20260831022503 27 190 3.2 8.0 0.00 0.00 0.00 57 1014.0
20260831022002 27 190 1.6 6.4 0.00 0.00 0.00 56 1014.0
20260831021609 28 190 3.2 6.4 0.00 0.00 0.00 55 1012.3
20260831021502 28 190 1.6 6.4 0.00 0.00 0.00 55 1014.0
20260831021003 28 190 0.0 4.8 0.00 0.00 0.00 54 1014.0
20260831020502 28 190 0.0 4.8 0.00 0.00 0.00 54 1013.8
20260831020113 28 0 1.6 6.4 0.00 0.00 0.00 53 1011.9
20260831020002 28 190 0.0 6.4 0.00 0.00 0.00 53 1013.6
20260831015503 28 190 1.6 6.4 0.00 0.00 0.00 54 1013.4
20260831015001 28 190 0.0 0.0 0.00 0.00 0.00 55 1013.2
20260831014602 28 0 0.0 0.0 0.00 0.00 0.00 54 1011.3
20260831014501 28 190 0.0 0.0 0.00 0.00 0.00 55 1013.1
20260831014100 28 190 0.0 0.0 0.00 0.00 0.00 55 1013.0
20260831014000 28 190 0.0 0.0 0.00 0.00 0.00 55 1013.0
20260831013600 28 190 0.0 1.6 0.00 0.00 0.00 54 1013.0
20260831013106 28 0 0.0 1.6 0.00 0.00 0.00 53 1010.9
20260831013101 28 190 0.0 1.6 0.00 0.00 0.00 54 1012.8
20260831012601 28 190 0.0 0.0 0.00 0.00 0.00 53 1012.6
20260831012100 28 190 0.0 0.0 0.00 0.00 0.00 52 1012.4
20260831011608 28 190 0.0 0.0 0.00 0.00 0.00 51 1012.3
20260831011601 28 0 0.0 0.0 0.00 0.00 0.00 50 1010.3
20260831011059 28 190 0.0 0.0 0.00 0.00 0.00 49 1012.1
20260831010600 28 190 0.0 0.0 0.00 0.00 0.00 48 1012.0
20260831010107 29 0 0.0 0.0 0.00 0.00 0.00 45 1010.1
20260831010001 29 190 0.0 0.0 0.00 0.00 0.00 45 1011.9
20260831005601 29 190 0.0 1.6 0.00 0.00 0.00 45 1011.8
20260831005058 29 190 0.0 6.4 0.00 0.00 0.00 44 1011.7
20260831004606 30 0 0.0 8.0 0.00 0.00 0.00 43 1009.8
20260831004558 30 190 0.0 6.4 0.00 0.00 0.00 44 1011.5
20260831004058 30 190 0.0 8.0 0.00 0.00 0.00 42 1011.4
20260831003559 30 190 1.6 11.3 0.00 0.00 0.00 41 1011.3
20260831003103 30 190 4.8 12.9 0.00 0.00 0.00 40 1009.5
20260831003059 30 190 4.8 12.9 0.00 0.00 0.00 41 1011.2
20260831002557 30 190 6.4 12.9 0.00 0.00 0.00 40 1011.1
20260831002059 31 190 3.2 9.7 0.00 0.00 0.00 40 1011.1
20260831001600 31 190 3.2 17.7 0.00 0.00 0.00 40 1009.3
20260831001557 31 190 1.6 17.7 0.00 0.00 0.00 40 1011.1
20260831001057 31 190 9.7 17.7 0.00 0.00 0.00 39 1011.0
20260831000557 31 190 3.2 14.5 0.00 0.00 0.00 40 1011.0
20260831000114 31 190 6.4 14.5 0.00 0.00 0.00 39 1009.2
20260830235556 31 190 6.4 14.5 0.00 0.00 0.00 39 1011.0
20260830235059 31 190 3.2 14.5 0.00 0.00 0.00 39 1010.8
20260830234604 31 190 4.8 14.5 0.00 0.00 0.00 38 1009.1
20260830234601 31 190 1.6 14.5 0.00 0.00 0.00 39 1010.8
20260830234055 32 190 6.4 14.5 0.00 0.00 0.00 38 1010.8
20260830233555 32 190 4.8 16.1 0.00 0.00 0.00 38 1010.7
20260830233103 32 190 6.4 16.1 0.00 0.00 0.00 36 1009.1
20260830233055 32 190 4.8 16.1 0.00 0.00 0.00 37 1010.8
20260830232554 32 190 4.8 11.3 0.00 0.00 0.00 36 1010.8
20260830232057 32 190 3.2 9.7 0.00 0.00 0.00 35 1010.6
20260830231610 32 190 3.2 11.3 0.00 0.00 0.00 35 1008.9
20260830231555 32 190 3.2 9.7 0.00 0.00 0.00 35 1010.6
20260830231054 32 190 4.8 11.3 0.00 0.00 0.00 34 1010.6
20260830230554 33 190 3.2 8.0 0.00 0.00 0.00 35 1010.5
20260830230107 33 0 1.6 12.9 0.00 0.00 0.00 34 1008.8
20260830230100 33 190 1.6 9.7 0.00 0.00 0.00 34 1010.5
20260830225554 33 190 1.6 12.9 0.00 0.00 0.00 34 1010.4
20260830225056 33 190 4.8 12.9 0.00 0.00 0.00 34 1010.4
20260830224601 33 190 0.0 9.7 0.00 0.00 0.00 33 1008.7
20260830224553 33 190 1.6 9.7 0.00 0.00 0.00 34 1010.3
20260830224053 33 190 3.2 9.7 0.00 0.00 0.00 34 1010.4
20260830223552 33 190 3.2 12.9 0.00 0.00 0.00 33 1010.5
20260830223102 33 190 6.4 12.9 0.00 0.00 0.00 34 1010.6
20260830222554 33 190 3.2 12.9 0.00 0.00 0.00 33 1010.6
20260830222051 33 190 4.8 11.3 0.00 0.00 0.00 34 1010.6
20260830221607 33 190 6.4 12.9 0.00 0.00 0.00 33 1010.7
20260830221559 33 190 4.8 16.1 0.00 0.00 0.00 33 1008.9
20260830221050 33 190 1.6 16.1 0.00 0.00 0.00 34 1010.8
20260830220551 33 190 4.8 16.1 0.00 0.00 0.00 33 1010.8
20260830220113 33 190 3.2 8.0 0.00 0.00 0.00 33 1009.2
20260830220050 33 190 1.6 8.0 0.00 0.00 0.00 33 1010.9
20260830215549 34 190 1.6 9.7 0.00 0.00 0.00 33 1011.0
20260830215049 34 190 1.6 9.7 0.00 0.00 0.00 32 1011.0
20260830214601 34 0 0.0 9.7 0.00 0.00 0.00 32 1009.3
20260830214547 34 190 0.0 8.0 0.00 0.00 0.00 32 1011.1
20260830214050 34 190 1.6 9.7 0.00 0.00 0.00 32 1011.2
20260830213545 34 190 3.2 9.7 0.00 0.00 0.00 32 1011.3
20260830213103 34 190 4.8 9.7 0.00 0.00 0.00 30 1009.6
20260830213046 34 190 4.8 9.7 0.00 0.00 0.00 31 1011.4
20260830212544 34 190 1.6 8.0 0.00 0.00 0.00 30 1011.5
20260830212043 34 190 3.2 8.0 0.00 0.00 0.00 31 1011.5
20260830211623 33 190 1.6 12.9 0.00 0.00 0.00 31 1009.7
20260830211542 33 190 1.6 12.9 0.00 0.00 0.00 32 1011.6
20260830211041 33 190 4.8 12.9 0.00 0.00 0.00 31 1011.8
20260830210541 33 190 3.2 12.9 0.00 0.00 0.00 32 1011.9
20260830210112 33 0 3.2 12.9 0.00 0.00 0.00 32 1010.0
20260830210039 33 190 3.2 12.9 0.00 0.00 0.00 32 1012.0
20260830205537 33 190 3.2 12.9 0.00 0.00 0.00 32 1012.1
20260830205035 33 190 3.2 9.7 0.00 0.00 0.00 33 1012.3
20260830204604 33 190 3.2 11.3 0.00 0.00 0.00 34 1010.3
20260830204541 33 190 3.2 11.3 0.00 0.00 0.00 35 1012.3
20260830204036 33 190 3.2 11.3 0.00 0.00 0.00 36 1012.4
20260830203532 33 190 4.8 11.3 0.00 0.00 0.00 35 1012.6
20260830203107 33 190 1.6 11.3 0.00 0.00 0.00 34 1010.6
20260830203036 32 190 1.6 11.3 0.00 0.00 0.00 35 1012.6
20260830202530 33 190 4.8 12.9 0.00 0.00 0.00 34 1012.7
20260830202030 33 190 3.2 12.9 0.00 0.00 0.00 34 1012.8
20260830201607 33 190 3.2 16.1 0.00 0.00 0.00 34 1010.8
20260830201527 32 190 1.6 12.9 0.00 0.00 0.00 35 1012.9
20260830201029 32 190 3.2 16.1 0.00 0.00 0.00 36 1013.0
20260830200526 32 190 3.2 16.1 0.00 0.00 0.00 36 1013.1
20260830200047 32 190 4.8 11.3 0.00 0.00 0.00 36 1013.2
20260830195525 32 190 0.0 14.5 0.00 0.00 0.00 36 1013.3
20260830195024 32 190 6.4 14.5 0.00 0.00 0.00 37 1013.5
20260830194609 32 190 3.2 9.7 0.00 0.00 0.00 36 1011.5
20260830194523 32 190 4.8 8.0 0.00 0.00 0.00 36 1013.6
20260830194023 32 190 1.6 9.7 0.00 0.00 0.00 36 1013.6
20260830193519 32 190 3.2 12.9 0.00 0.00 0.00 36 1013.8
20260830193106 32 0 4.8 12.9 0.00 0.00 0.00 37 1011.7
20260830193020 32 190 3.2 12.9 0.00 0.00 0.00 37 1014.0
20260830192517 32 190 3.2 9.7 0.00 0.00 0.00 37 1014.1
20260830192018 32 190 4.8 16.1 0.00 0.00 0.00 35 1014.3
20260830191602 32 190 6.4 16.1 0.00 0.00 0.00 36 1012.0
20260830191516 32 190 6.4 16.1 0.00 0.00 0.00 37 1014.3
20260830191017 32 190 3.2 6.4 0.00 0.00 0.00 35 1014.5
20260830190514 32 190 0.0 9.7 0.00 0.00 0.00 33 1014.6
20260830190122 32 190 4.8 9.7 0.00 0.00 0.00 32 1012.2
20260830190014 32 190 3.2 9.7 0.00 0.00 0.00 33 1014.8
20260830185514 32 190 0.0 8.0 0.00 0.00 0.00 33 1014.8
20260830185011 32 190 1.6 9.7 0.00 0.00 0.00 35 1014.8
20260830184613 31 190 3.2 9.7 0.00 0.00 0.00 33 1012.4
20260830184517 31 190 1.6 9.7 0.00 0.00 0.00 34 1014.9
20260830184008 32 190 1.6 12.9 0.00 0.00 0.00 33 1014.9
20260830183509 31 190 6.4 12.9 0.00 0.00 0.00 34 1015.0
20260830183105 32 190 6.4 12.9 0.00 0.00 0.00 33 1012.6
20260830183007 32 190 4.8 12.9 0.00 0.00 0.00 34 1015.0
20260830182509 32 190 4.8 11.3 0.00 0.00 0.00 34 1015.2
20260830182006 31 190 1.6 11.3 0.00 0.00 0.00 35 1015.3
20260830181607 31 190 4.8 11.3 0.00 0.00 0.00 34 1012.9
20260830181505 31 190 6.4 11.3 0.00 0.00 0.00 34 1015.4
20260830181004 31 190 1.6 11.3 0.00 0.00 0.00 35 1015.3
20260830180503 31 190 0.0 8.0 0.00 0.00 0.00 35 1015.5
20260830180116 31 0 3.2 11.3 0.00 0.00 0.00 36 1013.1
20260830180001 31 190 1.6 11.3 0.00 0.00 0.00 35 1015.5
20260830175601 30 190 3.2 11.3 0.00 0.00 0.00 36 1015.6
20260830175100 30 190 3.2 12.9 0.00 0.00 0.00 36 1015.7
20260830174610 30 0 6.4 17.7 0.00 0.00 0.00 35 1013.3
20260830174602 30 190 1.6 12.9 0.00 0.00 0.00 36 1015.7
20260830174058 31 190 4.8 17.7 0.00 0.00 0.00 36 1015.7
20260830173601 30 190 3.2 12.9 0.00 0.00 0.00 37 1015.7
20260830173128 30 190 4.8 12.9 0.00 0.00 0.00 36 1013.5
20260830173106 30 190 3.2 12.9 0.00 0.00 0.00 36 1016.0
20260830172556 30 190 1.6 11.3 0.00 0.00 0.00 36 1016.0
20260830172055 30 190 3.2 11.3 0.00 0.00 0.00 37 1016.1
20260830171613 30 190 3.2 9.7 0.00 0.00 0.00 37 1013.7
20260830171554 30 190 3.2 9.7 0.00 0.00 0.00 37 1016.1
20260830171053 30 190 3.2 9.7 0.00 0.00 0.00 38 1016.3
20260830170551 30 190 0.0 9.7 0.00 0.00 0.00 39 1016.4
20260830170058 29 190 1.6 11.3 0.00 0.00 0.00 39 1014.2
20260830170050 29 190 0.0 9.7 0.00 0.00 0.00 39 1016.5
20260830165649 29 190 3.2 11.3 0.00 0.00 0.00 40 1016.6
20260830165050 29 190 0.0 9.7 0.00 0.00 0.00 43 1016.7
20260830164604 28 0 1.6 11.3 0.00 0.00 0.00 43 1014.6
20260830164558 28 190 3.2 11.3 0.00 0.00 0.00 44 1016.9
20260830164045 28 190 4.8 11.3 0.00 0.00 0.00 45 1017.0
20260830163544 28 190 0.0 4.8 0.00 0.00 0.00 45 1017.0
20260830163110 28 190 0.0 8.0 0.00 0.00 0.00 48 1014.7
20260830163058 28 190 0.0 8.0 0.00 0.00 0.00 48 1017.1
20260830162542 27 190 1.6 8.0 0.00 0.00 0.00 48 1017.2
20260830162040 27 190 0.0 4.8 0.00 0.00 0.00 52 1017.3
20260830161610 27 0 0.0 4.8 0.00 0.00 0.00 52 1015.0
20260830161539 27 190 0.0 4.8 0.00 0.00 0.00 52 1017.3
20260830161037 26 190 0.0 4.8 0.00 0.00 0.00 57 1017.4
20260830160537 26 190 0.0 6.4 0.00 0.00 0.00 64 1017.5
20260830160108 26 190 0.0 3.2 0.00 0.00 0.00 65 1015.2
20260830160035 26 190 1.6 6.4 0.00 0.00 0.00 65 1017.6
20260830155535 26 190 0.0 4.8 0.00 0.00 0.00 66 1017.7
20260830155034 26 190 0.0 4.8 0.00 0.00 0.00 67 1017.8
20260830154600 25 190 0.0 4.8 0.00 0.00 0.00 67 1015.3
20260830154535 25 190 0.0 3.2 0.00 0.00 0.00 68 1017.8
20260830154029 25 190 0.0 4.8 0.00 0.00 0.00 70 1017.9
20260830153530 25 190 0.0 4.8 0.00 0.00 0.00 70 1017.9
20260830153109 25 0 0.0 0.0 0.00 0.00 0.00 70 1015.4
20260830153029 25 190 0.0 0.0 0.00 0.00 0.00 71 1018.0
20260830152526 25 190 0.0 0.0 0.00 0.00 0.00 72 1018.1
20260830152025 24 190 0.0 0.0 0.00 0.00 0.00 73 1018.0
20260830151610 24 0 0.0 0.0 0.00 0.00 0.00 74 1015.5
20260830151525 24 190 0.0 0.0 0.00 0.00 0.00 73 1018.1
20260830151024 24 190 0.0 1.6 0.00 0.00 0.00 74 1018.2
20260830150523 23 190 0.0 3.2 0.00 0.00 0.00 75 1018.2
20260830150104 23 0 0.0 0.0 0.00 0.00 0.00 75 1015.5
20260830150034 23 190 0.0 1.6 0.00 0.00 0.00 76 1018.2
20260830145520 23 190 0.0 0.0 0.00 0.00 0.00 77 1018.2
20260830145019 23 190 0.0 0.0 0.00 0.00 0.00 75 1018.1
20260830144604 23 0 0.0 0.0 0.00 0.00 0.00 79 1015.4
20260830144519 23 190 0.0 0.0 0.00 0.00 0.00 79 1018.0
20260830144016 22 190 0.0 0.0 0.00 0.00 0.00 81 1018.1
20260830143519 22 190 0.0 0.0 0.00 0.00 0.00 81 1018.2
20260830143107 22 0 0.0 0.0 0.00 0.00 0.00 81 1015.5
20260830143014 22 190 0.0 0.0 0.00 0.00 0.00 81 1018.1
20260830142518 21 190 0.0 0.0 0.00 0.00 0.00 81 1018.1
20260830142013 21 190 0.0 0.0 0.00 0.00 0.00 83 1018.1
20260830141603 21 0 0.0 1.6 0.00 0.00 0.00 82 1015.4
20260830141512 21 190 0.0 1.6 0.00 0.00 0.00 82 1018.0
20260830141011 21 190 0.0 1.6 0.00 0.00 0.00 82 1017.9
20260830140515 21 190 0.0 0.0 0.00 0.00 0.00 83 1017.9
20260830140108 20 0 0.0 0.0 0.00 0.00 0.00 83 1015.2
20260830140015 20 190 0.0 0.0 0.00 0.00 0.00 84 1017.9
20260830135514 20 190 0.0 0.0 0.00 0.00 0.00 85 1017.9
20260830135013 20 190 0.0 0.0 0.00 0.00 0.00 86 1017.8
20260830134608 20 0 0.0 0.0 0.00 0.00 0.00 86 1015.2
20260830134521 20 190 0.0 0.0 0.00 0.00 0.00 87 1017.9
20260830134010 19 190 0.0 0.0 0.00 0.00 0.00 86 1017.8
20260830133509 18 190 0.0 0.0 0.00 0.00 0.00 86 1017.8
20260830133119 18 0 0.0 0.0 0.00 0.00 0.00 87 1015.1
20260830133018 18 190 0.0 0.0 0.00 0.00 0.00 87 1017.7
20260830132508 18 190 0.0 0.0 0.00 0.00 0.00 88 1017.6
20260830132008 18 190 0.0 0.0 0.00 0.00 0.00 88 1017.6
20260830131604 18 0 0.0 0.0 0.00 0.00 0.00 87 1014.9
20260830131508 18 190 0.0 0.0 0.00 0.00 0.00 88 1017.6
20260830131008 18 190 0.0 0.0 0.00 0.00 0.00 88 1017.5
20260830130506 18 190 0.0 0.0 0.00 0.00 0.00 88 1017.5
20260830130104 18 0 0.0 0.0 0.00 0.00 0.00 87 1014.8
20260830130006 18 190 0.0 0.0 0.00 0.00 0.00 87 1017.5
20260830125506 18 190 0.0 0.0 0.00 0.03 0.00 87 1017.5
20260830125005 18 190 0.0 0.0 0.00 0.03 0.00 86 1017.5
20260830124608 18 0 0.0 0.0 0.00 0.00 0.00 86 1014.7
20260830124503 18 190 0.0 0.0 0.00 0.03 0.00 86 1017.5
20260830124004 18 190 0.0 0.0 0.00 0.03 0.00 87 1017.5
20260830123503 18 190 0.0 1.6 0.00 0.03 0.00 87 1017.4
20260830123104 18 190 0.0 0.0 0.00 0.00 0.00 86 1014.8
20260830123003 18 190 0.0 0.0 0.00 0.03 0.00 86 1017.4
20260830122502 18 190 0.0 0.0 0.00 0.03 0.00 86 1017.5
20260830122002 18 190 0.0 0.0 0.00 0.03 0.00 87 1017.4
20260830121608 18 0 0.0 0.0 0.00 0.00 0.00 87 1014.7
20260830121501 18 190 0.0 0.0 0.00 0.03 0.00 87 1017.4
20260830121002 18 190 0.0 0.0 0.00 0.03 0.00 87 1017.4
20260830120600 18 190 0.0 0.0 0.00 0.03 0.00 86 1017.3
20260830120106 18 0 0.0 0.0 0.00 0.00 0.00 86 1014.6
20260830115559 18 190 0.0 0.0 0.00 0.03 0.00 87 1017.2
20260830115058 18 190 0.0 0.0 0.00 0.03 0.00 87 1017.1
20260830114614 18 0 0.0 0.0 0.00 0.00 0.00 86 1014.4
20260830114604 18 190 0.0 0.0 0.00 0.03 0.00 87 1017.1
20260830114056 18 190 0.0 0.0 0.00 0.03 0.00 86 1017.0
20260830113557 18 190 0.0 0.0 0.00 0.03 0.00 85 1016.8
20260830113103 18 0 0.0 0.0 0.00 0.00 0.00 85 1014.1
20260830113057 18 190 0.0 0.0 0.00 0.03 0.00 85 1016.7
20260830112556 18 190 0.0 0.0 0.00 0.03 0.00 84 1016.7
20260830112056 18 190 0.0 0.0 0.00 0.03 0.00 86 1016.7
20260830111607 18 0 0.0 0.0 0.00 0.00 0.00 85 1014.0
20260830111556 18 190 0.0 0.0 0.00 0.03 0.00 86 1016.6
20260830111056 18 190 0.0 0.0 0.00 0.03 0.00 86 1016.6
20260830110555 18 190 0.0 0.0 0.00 0.03 0.00 85 1016.5
20260830110108 18 0 0.0 0.0 0.00 0.00 0.00 86 1013.9
20260830110056 18 190 0.0 0.0 0.00 0.03 0.00 86 1016.5
20260830105556 18 190 0.0 0.0 0.00 0.03 0.00 86 1016.5
20260830105053 18 190 0.0 0.0 0.00 0.03 0.00 85 1016.5
20260830104610 18 0 0.0 0.0 0.00 0.00 0.00 85 1013.9
20260830104552 18 190 0.0 0.0 0.00 0.03 0.00 85 1016.5
20260830104052 18 190 0.0 0.0 0.00 0.03 0.00 85 1016.5
20260830103555 18 190 0.0 0.0 0.00 0.03 0.00 84 1016.5
20260830103107 19 0 0.0 0.0 0.00 0.00 0.00 84 1014.0
20260830103051 19 190 0.0 0.0 0.00 0.03 0.00 84 1016.5
20260830102554 19 190 0.0 0.0 0.00 0.03 0.00 84 1016.5
20260830102048 19 190 0.0 0.0 0.00 0.03 0.00 84 1016.5
20260830101603 19 0 0.0 0.0 0.00 0.00 0.00 84 1014.1
20260830101548 19 190 0.0 0.0 0.00 0.03 0.00 84 1016.5
20260830101048 19 190 0.0 0.0 0.00 0.03 0.00 85 1016.5
20260830100550 19 190 0.0 0.0 0.00 0.03 0.00 85 1016.4
20260830100111 19 190 0.0 0.0 0.00 0.03 0.00 85 1016.5
20260830100109 19 0 0.0 0.0 0.00 0.00 0.00 85 1014.1
20260830095548 19 190 0.0 0.0 0.00 0.05 0.00 85 1016.4
20260830095047 19 190 0.0 0.0 0.00 0.05 0.00 85 1016.4
20260830094603 19 0 0.0 0.0 0.00 0.03 0.00 83 1014.1
20260830094546 19 190 0.0 0.0 0.00 0.05 0.00 83 1016.5
20260830094044 20 190 0.0 0.0 0.00 0.05 0.00 85 1016.4
20260830093544 20 190 0.0 0.0 0.00 0.05 0.00 86 1016.5
20260830093102 20 0 0.0 0.0 0.00 0.03 0.00 86 1014.3
20260830093043 20 190 0.0 0.0 0.00 0.05 0.00 86 1016.5
20260830092543 20 190 0.0 0.0 0.00 0.05 0.00 86 1016.5
20260830092043 20 190 0.0 0.0 0.00 0.05 0.00 87 1016.6
20260830091606 20 0 0.0 0.0 0.00 0.03 0.00 86 1014.3
20260830091543 20 190 0.0 0.0 0.00 0.05 0.00 87 1016.6
20260830091043 20 190 0.0 0.0 0.00 0.05 0.00 87 1016.6
20260830090543 20 190 0.0 0.0 0.00 0.05 0.00 86 1016.6
20260830090104 20 0 0.0 0.0 0.00 0.03 0.00 85 1014.3
20260830090042 20 190 0.0 0.0 0.00 0.05 0.00 86 1016.6
20260830085541 20 190 0.0 0.0 0.00 0.05 0.00 85 1016.6
20260830085041 20 190 0.0 0.0 0.00 0.05 0.00 84 1016.6
20260830084608 20 0 0.0 0.0 0.00 0.03 0.00 83 1014.4
20260830084539 20 190 0.0 0.0 0.00 0.05 0.00 83 1016.7
20260830084039 20 190 0.0 0.0 0.00 0.05 0.00 83 1016.7
20260830083538 20 190 0.0 0.0 0.00 0.05 0.00 82 1016.8
20260830083107 20 0 0.0 0.0 0.00 0.03 0.00 82 1014.4
20260830083038 20 190 0.0 0.0 0.00 0.05 0.00 83 1016.7
20260830082539 20 190 0.0 0.0 0.00 0.05 0.00 82 1016.7
20260830082036 20 190 0.0 0.0 0.00 0.05 0.00 82 1016.8
20260830081605 20 0 0.0 1.6 0.00 0.03 0.00 82 1014.5
20260830081536 20 190 0.0 0.0 0.00 0.05 0.00 82 1016.8
20260830081035 20 190 0.0 1.6 0.00 0.05 0.00 82 1016.8
20260830080535 20 190 0.0 1.6 0.00 0.05 0.00 82 1016.8
20260830080034 21 190 0.0 0.0 0.00 0.05 0.00 84 1016.8
20260830075533 21 190 0.0 0.0 0.00 0.13 0.00 85 1016.8
20260830075034 21 190 0.0 0.0 0.00 0.13 0.00 85 1016.8
20260830074605 21 0 0.0 0.0 0.00 0.10 0.00 84 1014.7
20260830074533 21 190 0.0 0.0 0.00 0.13 0.00 85 1016.8
20260830074033 21 190 0.0 0.0 0.00 0.13 0.00 84 1016.9
20260830073530 21 190 0.0 0.0 0.00 0.13 0.00 84 1016.9
20260830073103 21 0 0.0 0.0 0.00 0.10 0.00 82 1014.8
20260830073030 21 190 0.0 0.0 0.00 0.13 0.00 83 1016.9
20260830072533 21 190 0.0 0.0 0.00 0.13 0.00 83 1016.9
20260830072029 21 190 0.0 0.0 0.00 0.13 0.00 82 1016.9
20260830071604 21 0 0.0 0.0 0.00 0.10 0.00 81 1014.8
20260830071536 21 190 0.0 0.0 0.00 0.13 0.00 82 1016.9
20260830071028 21 190 0.0 0.0 0.00 0.13 0.00 82 1017.0
20260830070526 21 190 0.0 0.0 0.00 0.13 0.00 83 1017.0
20260830070105 21 0 0.0 0.0 0.00 0.10 0.00 83 1015.0
20260830070025 21 190 0.0 0.0 0.00 0.13 0.00 83 1017.0
20260830065525 21 190 0.0 0.0 0.00 0.13 0.00 85 1017.1
20260830065025 21 190 0.0 0.0 0.00 0.13 0.00 86 1017.1
20260830064610 21 0 0.0 0.0 0.00 0.10 0.00 84 1015.0
20260830064523 21 190 0.0 0.0 0.00 0.13 0.00 85 1017.1
20260830064022 21 190 0.0 0.0 0.00 0.13 0.00 85 1017.1
20260830063522 21 190 0.0 0.0 0.00 0.13 0.00 85 1017.2
20260830063104 22 0 0.0 0.0 0.00 0.10 0.00 84 1015.2
20260830063022 21 190 0.0 0.0 0.00 0.13 0.00 85 1017.2
20260830062520 22 190 0.0 0.0 0.00 0.13 0.00 85 1017.1
20260830062019 22 190 0.0 0.0 0.00 0.13 0.00 85 1017.2
20260830061602 22 0 0.0 0.0 0.00 0.10 0.00 85 1015.2
20260830061519 22 190 0.0 0.0 0.00 0.13 0.00 85 1017.2
20260830061020 22 190 0.0 0.0 0.00 0.13 0.00 85 1017.2
20260830060518 22 190 0.0 0.0 0.00 0.13 0.00 85 1017.2
20260830060116 22 0 0.0 0.0 0.00 0.10 0.00 84 1015.3
20260830060018 22 190 0.0 0.0 0.00 0.13 0.00 84 1017.2
20260830055518 22 190 0.0 0.0 0.00 0.30 0.13 84 1017.2
20260830055018 22 190 0.0 0.0 0.00 0.30 0.13 83 1017.2
20260830054613 22 0 0.0 0.0 0.00 0.28 0.10 83 1015.2
20260830054517 22 190 0.0 0.0 0.00 0.30 0.13 83 1017.1
20260830054016 22 190 0.0 0.0 0.00 0.30 0.13 83 1017.1
20260830053516 22 190 0.0 0.0 0.00 0.30 0.13 84 1017.1
20260830053105 22 0 0.0 0.0 0.00 0.28 0.10 83 1015.2
20260830053016 22 190 0.0 0.0 0.00 0.30 0.13 84 1017.0
20260830052516 22 190 0.0 0.0 0.00 0.30 0.13 84 1016.9
20260830052016 22 190 0.0 0.0 0.00 0.30 0.13 84 1017.0
20260830051603 22 0 0.0 1.6 0.00 0.28 0.10 83 1015.1
20260830051516 22 190 0.0 0.0 0.00 0.30 0.13 83 1016.9
20260830051018 22 190 0.0 1.6 0.00 0.30 0.13 83 1016.9
20260830050519 23 190 0.0 1.6 0.00 0.30 0.13 81 1016.8
20260830050112 23 0 0.0 0.0 0.00 0.28 0.10 80 1015.1
20260830050016 23 190 0.0 0.0 0.00 0.30 0.13 81 1016.8
20260830045515 23 190 0.0 0.0 0.00 0.30 0.13 81 1016.7
20260830045016 23 190 0.0 0.0 0.00 0.30 0.13 81 1016.7
20260830044607 23 0 0.0 0.0 0.00 0.28 0.10 80 1015.0
20260830044515 23 190 0.0 0.0 0.00 0.30 0.13 81 1016.7
20260830044018 23 190 0.0 0.0 0.00 0.30 0.13 80 1016.7
20260830043515 23 190 0.0 0.0 0.00 0.30 0.13 81 1016.6
20260830043108 23 0 0.0 0.0 0.00 0.28 0.10 80 1014.8
20260830043015 23 190 0.0 0.0 0.00 0.30 0.13 80 1016.5
20260830042514 23 190 0.0 0.0 0.00 0.30 0.13 80 1016.5
20260830042015 23 190 0.0 0.0 0.00 0.30 0.13 80 1016.4
20260830041603 23 0 0.0 0.0 0.00 0.28 0.10 79 1014.5
20260830041520 23 190 0.0 0.0 0.00 0.30 0.13 80 1016.3
20260830041015 23 190 0.0 0.0 0.00 0.30 0.13 80 1016.2
20260830040515 23 190 0.0 0.0 0.00 0.30 0.13 80 1016.2
20260830040108 23 0 0.0 0.0 0.00 0.28 0.10 79 1014.3
20260830040014 23 190 0.0 0.0 0.00 0.30 0.13 79 1016.2
20260830035514 23 190 0.0 0.0 0.00 0.30 0.13 79 1016.1
20260830035013 23 190 0.0 0.0 0.00 0.30 0.13 79 1016.0
20260830034609 23 0 0.0 0.0 0.00 0.28 0.10 78 1014.1
20260830034513 23 190 0.0 0.0 0.00 0.30 0.13 78 1015.9